Meteo Giornale » Osservazioni meteo Francia » Lione-Satolas

ore: 15:00 - Osservazioni Meteo Lione-Satolas
Lat. 45° 44' N Lon. 5° 5' E Alt. 248 metri s.l.m.

nuvoloso Europe/Paris

19 °C

Nuvoloso

Temp. 24 Ore

14 °C

19 °C

Nord-Ovest

13 Km/h

Dew point 12 °C

Umidità 63 %

Visibilità  10 Km

Il sole sorge alle ore 07:24

Il sole tramonta alle ore 19:41

Data e Ora Cielo e Fenomeni T °C DP °C Um. % Pres. hPa Vis. km Vento km/h
Oggi h: 15:00 nuvoloso Nuvoloso 19 12 63 1025 10 NO 13
Oggi h: 14:30 nuvoloso Nuvoloso 19 12 63 1026 10 O 9.3
Oggi h: 14:00 nuvoloso Nuvoloso 18 12 67 1026 10 N 5.5
Oggi h: 13:30 nuvoloso Nuvoloso 18 13 72 1026 10 N/NO 9.3
Oggi h: 12:30 nuvoloso Nuvoloso 17 12 72 1026 10 N/NO 7.4
Oggi h: 12:00 molto_nuvoloso Molto Nuvoloso 16 13 82 1026 10 N 11.1
Oggi h: 11:30 molto_nuvoloso Molto Nuvoloso 15 13 87 1026 10 N 13
Oggi h: 11:00 molto_nuvoloso Molto Nuvoloso 15 13 87 1026 10 N 13
Oggi h: 10:30 molto_nuvoloso Molto Nuvoloso 15 13 87 1025 10 N 9.3
Oggi h: 10:00 molto_nuvoloso Molto Nuvoloso 15 13 87 1025 10 N/NE 11.1
Oggi h: 09:30 molto_nuvoloso Molto Nuvoloso 15 13 87 1025 10 N/NO 9.3
Oggi h: 09:00 molto_nuvoloso Molto Nuvoloso 15 13 87 1024 10 N 11.1
Oggi h: 08:30 molto_nuvoloso Molto Nuvoloso 14 13 93 1024 10 N 9.3
Oggi h: 08:00 molto_nuvoloso Molto Nuvoloso 14 13 93 1024 10 N 5.5
Oggi h: 07:30 molto_nuvoloso Molto Nuvoloso 14 13 93 1023 10 N/NO 11.1
Oggi h: 07:00 molto_nuvoloso Molto Nuvoloso 14 13 93 1023 10 N/NO 7.4
Oggi h: 06:30 molto_nuvoloso Molto Nuvoloso 14 13 93 1023 10 N/NO 7.4
Oggi h: 06:00 molto_nuvoloso Molto Nuvoloso 14 13 93 1023 10 N 9.3
Oggi h: 05:30 molto_nuvoloso Molto Nuvoloso 14 14 100 1023 10 N/NE 7.4
Oggi h: 05:00 molto_nuvoloso Molto Nuvoloso 14 14 100 1023 10 N 5.5
Oggi h: 04:30 molto_nuvoloso Molto Nuvoloso 14 14 100 1023 10 N 3.7
Oggi h: 04:00 molto_nuvoloso Molto Nuvoloso 14 14 100 1023 10 N 5.5
Oggi h: 03:30 molto_nuvoloso Molto Nuvoloso 14 14 100 1022 10 N 3.7
Oggi h: 02:00 molto_nuvoloso Molto Nuvoloso 14 13 93 1022 10 N 7.4
Oggi h: 01:30 molto_nuvoloso Molto Nuvoloso 14 14 100 1022 10 N 5.5
Oggi h: 01:00 molto_nuvoloso Molto Nuvoloso 14 13 93 1022 10 N 5.5
Oggi h: 00:30 molto_nuvoloso Molto Nuvoloso 14 13 93 1022 10 N/NO 7.4
Oggi h: 00:00 molto_nuvoloso Molto Nuvoloso 14 13 93 1022 10 N 7.4
Ieri h: 23:30 molto_nuvoloso Molto Nuvoloso 14 13 93 1022 10 N/NE 7.4
Ieri h: 23:00 molto_nuvoloso Molto Nuvoloso 15 14 93 1022 10 N 9.3
Ieri h: 22:30 molto_nuvoloso Molto Nuvoloso 15 14 93 1021 10 N 7.4
Ieri h: 22:00 molto_nuvoloso Molto Nuvoloso 15 14 93 1021 10 N 5.5
Ieri h: 21:30 molto_nuvoloso Molto Nuvoloso 15 14 93 1021 10 N 5.5
Ieri h: 21:00 molto_nuvoloso Molto Nuvoloso 15 14 93 1021 10 N 5.5
Ieri h: 20:30 molto_nuvoloso Molto Nuvoloso 15 14 93 1020 10 N 3.7
Ieri h: 20:00 molto_nuvoloso Molto Nuvoloso 15 14 93 1020 10 N 5.5
Ieri h: 19:30 molto_nuvoloso Molto Nuvoloso 15 14 93 1020 10 N/NE 9.3
Ieri h: 19:00 molto_nuvoloso Molto Nuvoloso 16 13 82 1019 10 N 13
Ieri h: 18:30 molto_nuvoloso Molto Nuvoloso 16 14 87 1019 10 N 13
Ieri h: 18:00 molto_nuvoloso Molto Nuvoloso 16 14 87 1019 10 N/NO 11.1
Ieri h: 17:30 molto_nuvoloso Molto Nuvoloso 16 14 87 1019 10 N 7.4
Ieri h: 17:00 coperto_pioggia Pioggia Debole 15 14 93 1019 10 N 9.3